| time (UTC) | temp F | wind direction | speed knots | gust knots | rain 1hr in | rain 24hr in | rain mn in | humidity % | barometer mb |
| 20260504081933 | 48 | 131 | 0.0 | 0.9 | 0.00 | 0.00 | 0.00 | 66 | 1016.0 |
| 20260504081433 | 48 | 90 | 0.0 | 0.9 | 0.00 | 0.00 | 0.00 | 65 | 1016.0 |
| 20260504080933 | 48 | 90 | 0.0 | 0.9 | 0.00 | 0.00 | 0.00 | 64 | 1016.0 |
| 20260504080433 | 49 | 107 | 0.9 | 0.9 | 0.00 | 0.00 | 0.00 | 63 | 1016.0 |
| 20260504070221 | 47 | 90 | 0.0 | 0.9 | 0.00 | 0.00 | 0.00 | 63 | 1016.0 |
| 20260504050623 | 46 | 90 | 0.0 | 0.9 | 0.00 | 0.00 | 0.00 | 64 | 1016.0 |
| 20260504050123 | 46 | 128 | 0.0 | 0.9 | 0.00 | 0.00 | 0.00 | 62 | 1016.0 |
| 20260504045623 | 46 | 90 | 0.0 | 0.9 | 0.00 | 0.00 | 0.00 | 64 | 1016.0 |
| 20260504045124 | 46 | 179 | 0.0 | 0.9 | 0.00 | 0.00 | 0.00 | 62 | 1016.0 |
| 20260504044623 | 46 | 0 | 0.0 | 0.9 | 0.00 | 0.00 | 0.00 | 60 | 1016.0 |
| 20260504043913 | 46 | 179 | 0.0 | 1.7 | 0.00 | 0.00 | 0.00 | 62 | 1016.0 |
| 20260504043412 | 46 | 179 | 0.9 | 0.9 | 0.00 | 0.00 | 0.00 | 64 | 1016.0 |
| 20260504042912 | 46 | 179 | 0.0 | 0.9 | 0.00 | 0.00 | 0.00 | 62 | 1016.0 |
| 20260504042412 | 46 | 0 | 0.0 | 0.9 | 0.00 | 0.00 | 0.00 | 58 | 1016.0 |
| 20260504041912 | 46 | 281 | 0.0 | 0.9 | 0.00 | 0.00 | 0.00 | 59 | 1016.0 |
| 20260504041412 | 46 | 90 | 0.0 | 0.9 | 0.00 | 0.00 | 0.00 | 61 | 1016.0 |
| 20260504040912 | 46 | 179 | 0.0 | 1.7 | 0.00 | 0.00 | 0.00 | 63 | 1016.0 |
| 20260504040413 | 46 | 142 | 0.0 | 0.9 | 0.00 | 0.00 | 0.00 | 59 | 1016.0 |
| 20260504035912 | 47 | 118 | 0.0 | 0.9 | 0.00 | 0.00 | 0.00 | 60 | 1016.0 |
| 20260504035412 | 47 | 179 | 0.0 | 0.9 | 0.00 | 0.00 | 0.00 | 58 | 1016.0 |
| 20260504034912 | 47 | 0 | 0.0 | 1.7 | 0.00 | 0.00 | 0.00 | 58 | 1016.0 |
| 20260504034413 | 47 | 163 | 0.9 | 0.9 | 0.00 | 0.00 | 0.00 | 54 | 1016.0 |
| 20260504033448 | 47 | 148 | 0.0 | 0.9 | 0.00 | 0.00 | 0.00 | 54 | 1016.0 |
| 20260504032526 | 47 | 179 | 0.0 | 0.9 | 0.00 | 0.00 | 0.00 | 54 | 1016.0 |
| 20260504032026 | 47 | 139 | 0.0 | 1.7 | 0.00 | 0.00 | 0.00 | 54 | 1016.0 |
| 20260504031527 | 47 | 138 | 0.0 | 1.7 | 0.00 | 0.00 | 0.00 | 56 | 1016.0 |
| 20260504031026 | 47 | 159 | 0.9 | 0.9 | 0.00 | 0.00 | 0.00 | 55 | 1016.0 |
| 20260504030527 | 47 | 66 | 0.0 | 0.9 | 0.00 | 0.00 | 0.00 | 57 | 1016.0 |
| 20260504030026 | 48 | 0 | 0.0 | 0.9 | 0.00 | 0.00 | 0.00 | 58 | 1016.0 |
| 20260504025526 | 48 | 42 | 0.0 | 0.9 | 0.00 | 0.00 | 0.00 | 55 | 1016.0 |
| 20260504025026 | 49 | 64 | 0.0 | 0.9 | 0.00 | 0.00 | 0.00 | 56 | 1016.0 |
| 20260504024527 | 49 | 29 | 0.0 | 1.7 | 0.00 | 0.00 | 0.00 | 54 | 1016.0 |
| 20260504024026 | 49 | 179 | 0.9 | 0.9 | 0.00 | 0.00 | 0.00 | 53 | 1016.0 |
| 20260504023527 | 49 | 90 | 0.0 | 0.0 | 0.00 | 0.00 | 0.00 | 54 | 1016.0 |
| 20260504023027 | 49 | 65 | 0.0 | 0.9 | 0.00 | 0.00 | 0.00 | 52 | 1016.0 |
| 20260504022526 | 49 | 60 | 0.0 | 0.9 | 0.00 | 0.00 | 0.00 | 57 | 1016.0 |
| 20260504022026 | 50 | 168 | 0.9 | 0.9 | 0.00 | 0.00 | 0.00 | 48 | 1016.0 |
| 20260504021314 | 50 | 138 | 0.0 | 0.9 | 0.00 | 0.00 | 0.00 | 49 | 1016.0 |
| 20260504020814 | 51 | 149 | 0.0 | 0.9 | 0.00 | 0.00 | 0.00 | 47 | 1016.0 |
| 20260504020313 | 51 | 134 | 0.9 | 1.7 | 0.00 | 0.00 | 0.00 | 47 | 1016.0 |
| 20260504015813 | 51 | 163 | 1.7 | 1.7 | 0.00 | 0.00 | 0.00 | 45 | 1016.0 |
| 20260504015313 | 51 | 90 | 0.9 | 0.9 | 0.00 | 0.00 | 0.00 | 48 | 1016.0 |
| 20260504014813 | 51 | 156 | 0.0 | 0.9 | 0.00 | 0.00 | 0.00 | 45 | 1016.0 |
| 20260504014313 | 51 | 160 | 0.0 | 0.9 | 0.00 | 0.00 | 0.00 | 47 | 1016.0 |
| 20260504013814 | 51 | 163 | 0.9 | 0.9 | 0.00 | 0.00 | 0.00 | 48 | 1016.0 |
| 20260504013100 | 51 | 71 | 0.9 | 0.9 | 0.00 | 0.00 | 0.00 | 50 | 1016.0 |
| 20260504012559 | 52 | 90 | 0.9 | 0.9 | 0.00 | 0.00 | 0.00 | 47 | 1016.0 |
| 20260504012100 | 52 | 90 | 0.0 | 0.9 | 0.00 | 0.00 | 0.00 | 47 | 1016.0 |
| 20260504011600 | 53 | 203 | 0.0 | 0.9 | 0.00 | 0.00 | 0.00 | 45 | 1016.0 |
| 20260504011100 | 53 | 214 | 0.0 | 0.9 | 0.00 | 0.00 | 0.00 | 43 | 1016.0 |
| 20260504010559 | 53 | 179 | 0.0 | 0.9 | 0.00 | 0.00 | 0.00 | 43 | 1016.0 |
| 20260504005848 | 53 | 162 | 0.9 | 0.9 | 0.00 | 0.00 | 0.00 | 42 | 1016.0 |
| 20260504005348 | 53 | 129 | 0.9 | 0.9 | 0.00 | 0.00 | 0.00 | 42 | 1016.0 |
| 20260504004636 | 54 | 131 | 0.0 | 0.9 | 0.00 | 0.00 | 0.00 | 42 | 1015.0 |
| 20260504004136 | 54 | 161 | 0.9 | 1.7 | 0.00 | 0.00 | 0.00 | 39 | 1015.0 |
| 20260504002959 | 55 | 171 | 1.7 | 1.7 | 0.00 | 0.00 | 0.00 | 37 | 1015.0 |
| 20260504002459 | 55 | 185 | 0.9 | 0.9 | 0.00 | 0.00 | 0.00 | 36 | 1015.0 |
| 20260504001959 | 55 | 90 | 0.0 | 0.9 | 0.00 | 0.00 | 0.00 | 39 | 1015.0 |
| 20260504001500 | 56 | 163 | 0.9 | 1.7 | 0.00 | 0.00 | 0.00 | 39 | 1015.0 |
| 20260504000959 | 56 | 161 | 0.9 | 1.7 | 0.00 | 0.00 | 0.00 | 38 | 1015.0 |
| 20260504000500 | 57 | 154 | 0.9 | 0.9 | 0.00 | 0.00 | 0.00 | 37 | 1015.0 |
| 20260504000000 | 57 | 134 | 0.0 | 0.9 | 0.00 | 0.00 | 0.00 | 37 | 1015.0 |
| 20260503235248 | 57 | 156 | 0.0 | 0.9 | 0.00 | 0.00 | 0.00 | 36 | 1015.0 |
| 20260503234749 | 58 | 158 | 0.0 | 0.9 | 0.00 | 0.00 | 0.00 | 35 | 1015.0 |
| 20260503234247 | 58 | 90 | 0.0 | 1.7 | 0.00 | 0.00 | 0.00 | 35 | 1015.0 |
| 20260503233749 | 58 | 168 | 0.9 | 1.7 | 0.00 | 0.00 | 0.00 | 35 | 1015.0 |
| 20260503233247 | 59 | 140 | 0.0 | 1.7 | 0.00 | 0.00 | 0.00 | 35 | 1015.0 |
| 20260503232747 | 59 | 183 | 0.0 | 1.7 | 0.00 | 0.00 | 0.00 | 34 | 1015.0 |
| 20260503232248 | 59 | 306 | 0.0 | 1.7 | 0.00 | 0.00 | 0.00 | 33 | 1015.0 |
| 20260503231747 | 59 | 179 | 0.0 | 1.7 | 0.00 | 0.00 | 0.00 | 33 | 1015.0 |
| 20260503231036 | 59 | 71 | 0.9 | 3.5 | 0.00 | 0.00 | 0.00 | 31 | 1015.0 |
| 20260503230536 | 59 | 143 | 0.0 | 5.2 | 0.00 | 0.00 | 0.00 | 30 | 1015.0 |
| 20260503230037 | 60 | 90 | 0.0 | 1.7 | 0.00 | 0.00 | 0.00 | 32 | 1015.0 |
| 20260503225536 | 60 | 179 | 0.0 | 1.7 | 0.00 | 0.00 | 0.00 | 32 | 1015.0 |
| 20260503224825 | 60 | 46 | 1.7 | 4.3 | 0.00 | 0.00 | 0.00 | 30 | 1015.0 |
| 20260503224325 | 60 | 191 | 0.9 | 4.3 | 0.00 | 0.00 | 0.00 | 29 | 1015.0 |
| 20260503223613 | 60 | 289 | 0.0 | 3.5 | 0.00 | 0.00 | 0.00 | 30 | 1015.0 |
| 20260503223113 | 60 | 179 | 0.0 | 2.6 | 0.00 | 0.00 | 0.00 | 30 | 1015.0 |
| 20260503222614 | 60 | 233 | 0.9 | 3.5 | 0.00 | 0.00 | 0.00 | 30 | 1015.0 |
| 20260503222113 | 60 | 90 | 0.9 | 7.0 | 0.00 | 0.00 | 0.00 | 28 | 1015.0 |
| 20260503221612 | 60 | 266 | 3.5 | 13.0 | 0.00 | 0.00 | 0.00 | 28 | 1015.0 |
| 20260503221112 | 61 | 232 | 0.0 | 3.5 | 0.00 | 0.00 | 0.00 | 30 | 1015.0 |
| 20260503220614 | 61 | 204 | 1.7 | 5.2 | 0.00 | 0.00 | 0.00 | 30 | 1015.0 |
| 20260503220112 | 62 | 120 | 2.6 | 4.3 | 0.00 | 0.00 | 0.00 | 27 | 1015.0 |
| 20260503215614 | 62 | 225 | 0.9 | 2.6 | 0.00 | 0.00 | 0.00 | 29 | 1015.0 |
| 20260503214859 | 62 | 30 | 1.7 | 4.3 | 0.00 | 0.00 | 0.00 | 29 | 1015.0 |
| 20260503214359 | 62 | 9 | 2.6 | 5.2 | 0.00 | 0.00 | 0.00 | 29 | 1015.0 |
| 20260503213647 | 61 | 181 | 0.9 | 7.0 | 0.00 | 0.00 | 0.00 | 29 | 1015.0 |
| 20260503213147 | 61 | 223 | 1.7 | 6.1 | 0.00 | 0.00 | 0.00 | 30 | 1015.0 |
| 20260503212647 | 60 | 121 | 0.0 | 4.3 | 0.00 | 0.00 | 0.00 | 28 | 1015.0 |
| 20260503211723 | 60 | 293 | 0.9 | 6.1 | 0.00 | 0.00 | 0.00 | 28 | 1015.0 |
| 20260503211223 | 61 | 26 | 0.9 | 5.2 | 0.00 | 0.00 | 0.00 | 30 | 1015.0 |
| 20260503210724 | 60 | 205 | 0.9 | 7.0 | 0.00 | 0.00 | 0.00 | 30 | 1015.0 |
| 20260503210223 | 60 | 154 | 0.9 | 5.2 | 0.00 | 0.00 | 0.00 | 30 | 1015.0 |
| 20260503205723 | 60 | 111 | 2.6 | 5.2 | 0.00 | 0.00 | 0.00 | 29 | 1015.0 |
| 20260503205223 | 60 | 1 | 5.2 | 7.0 | 0.00 | 0.00 | 0.00 | 30 | 1015.0 |
| 20260503204300 | 60 | 61 | 2.6 | 5.2 | 0.00 | 0.00 | 0.00 | 28 | 1015.0 |
| 20260503203802 | 61 | 40 | 0.0 | 10.4 | 0.00 | 0.00 | 0.00 | 31 | 1015.0 |
| 20260503203302 | 60 | 272 | 1.7 | 6.1 | 0.00 | 0.00 | 0.00 | 30 | 1015.0 |
| 20260503202801 | 60 | 81 | 1.7 | 7.0 | 0.00 | 0.00 | 0.00 | 29 | 1015.0 |
| 20260503202300 | 61 | 321 | 0.9 | 6.1 | 0.00 | 0.00 | 0.00 | 28 | 1015.0 |
| 20260503201800 | 61 | 189 | 0.9 | 7.0 | 0.00 | 0.00 | 0.00 | 29 | 1015.0 |
| 20260503201300 | 61 | 337 | 2.6 | 7.8 | 0.00 | 0.00 | 0.00 | 28 | 1015.0 |
| 20260503200800 | 62 | 212 | 4.3 | 7.0 | 0.00 | 0.00 | 0.00 | 27 | 1015.0 |
| 20260503200300 | 62 | 47 | 0.0 | 7.8 | 0.00 | 0.00 | 0.00 | 29 | 1015.0 |
| 20260503195801 | 63 | 12 | 1.7 | 4.3 | 0.00 | 0.00 | 0.00 | 28 | 1015.0 |
| 20260503195048 | 62 | 247 | 1.7 | 5.2 | 0.00 | 0.00 | 0.00 | 28 | 1016.0 |
| 20260503194549 | 62 | 43 | 1.7 | 5.2 | 0.00 | 0.00 | 0.00 | 27 | 1015.0 |
| 20260503194048 | 62 | 337 | 1.7 | 5.2 | 0.00 | 0.00 | 0.00 | 27 | 1016.0 |
| 20260503193549 | 62 | 254 | 0.9 | 6.1 | 0.00 | 0.00 | 0.00 | 26 | 1016.0 |
| 20260503193048 | 62 | 211 | 1.7 | 7.8 | 0.00 | 0.00 | 0.00 | 26 | 1016.0 |
| 20260503192548 | 64 | 217 | 2.6 | 6.1 | 0.00 | 0.00 | 0.00 | 26 | 1016.0 |
| 20260503192048 | 64 | 302 | 2.6 | 8.7 | 0.00 | 0.00 | 0.00 | 28 | 1016.0 |
| 20260503191548 | 65 | 194 | 1.7 | 5.2 | 0.00 | 0.00 | 0.00 | 28 | 1016.0 |
| 20260503191048 | 64 | 209 | 0.0 | 5.2 | 0.00 | 0.00 | 0.00 | 31 | 1016.0 |
| 20260503190337 | 64 | 200 | 1.7 | 7.8 | 0.00 | 0.00 | 0.00 | 26 | 1016.0 |
| 20260503185837 | 64 | 243 | 1.7 | 7.0 | 0.00 | 0.00 | 0.00 | 30 | 1016.0 |
| 20260503185337 | 63 | 219 | 0.0 | 7.8 | 0.00 | 0.00 | 0.00 | 28 | 1016.0 |
| 20260503184838 | 63 | 186 | 1.7 | 5.2 | 0.00 | 0.00 | 0.00 | 30 | 1016.0 |
| 20260503184337 | 63 | 232 | 2.6 | 7.0 | 0.00 | 0.00 | 0.00 | 29 | 1016.0 |
| 20260503183836 | 62 | 307 | 1.7 | 7.8 | 0.00 | 0.00 | 0.00 | 31 | 1017.0 |
| 20260503183125 | 61 | 94 | 2.6 | 7.8 | 0.00 | 0.00 | 0.00 | 31 | 1017.0 |
| 20260503182626 | 62 | 29 | 1.7 | 8.7 | 0.00 | 0.00 | 0.00 | 31 | 1017.0 |
| 20260503182125 | 60 | 235 | 0.9 | 5.2 | 0.00 | 0.00 | 0.00 | 30 | 1017.0 |
| 20260503181625 | 61 | 62 | 0.9 | 10.4 | 0.00 | 0.00 | 0.00 | 30 | 1017.0 |
| 20260503181125 | 63 | 184 | 2.6 | 5.2 | 0.00 | 0.00 | 0.00 | 28 | 1017.0 |
| 20260503180626 | 64 | 218 | 0.9 | 5.2 | 0.00 | 0.00 | 0.00 | 27 | 1017.0 |
| 20260503180125 | 64 | 118 | 0.0 | 6.1 | 0.00 | 0.00 | 0.00 | 28 | 1017.0 |
| 20260503175625 | 63 | 97 | 3.5 | 7.0 | 0.00 | 0.00 | 0.00 | 30 | 1017.0 |
| 20260503175125 | 62 | 119 | 3.5 | 7.8 | 0.00 | 0.00 | 0.00 | 30 | 1017.0 |
| 20260503174625 | 61 | 119 | 0.9 | 6.1 | 0.00 | 0.00 | 0.00 | 33 | 1017.0 |
| 20260503174126 | 61 | 213 | 6.1 | 7.0 | 0.00 | 0.00 | 0.00 | 29 | 1017.0 |
| 20260503173625 | 60 | 104 | 0.9 | 8.7 | 0.00 | 0.00 | 0.00 | 30 | 1017.0 |
| 20260503172914 | 59 | 45 | 7.8 | 8.7 | 0.00 | 0.00 | 0.00 | 30 | 1017.0 |
| 20260503172414 | 61 | 153 | 0.9 | 4.3 | 0.00 | 0.00 | 0.00 | 31 | 1017.0 |
| 20260503171915 | 59 | 178 | 1.7 | 10.4 | 0.00 | 0.00 | 0.00 | 28 | 1017.0 |
| 20260503171415 | 59 | 3 | 4.3 | 8.7 | 0.00 | 0.00 | 0.00 | 30 | 1017.0 |
| 20260503170915 | 58 | 8 | 3.5 | 9.6 | 0.00 | 0.00 | 0.00 | 28 | 1017.0 |
| 20260503170414 | 59 | 320 | 4.3 | 7.0 | 0.00 | 0.00 | 0.00 | 31 | 1017.0 |
| 20260503160203 | 58 | 179 | 3.5 | 10.4 | 0.00 | 0.00 | 0.00 | 28 | 1017.0 |
| 20260503150737 | 53 | 187 | 5.2 | 13.0 | 0.00 | 0.00 | 0.00 | 34 | 1017.0 |
| 20260503150237 | 52 | 33 | 3.5 | 8.7 | 0.00 | 0.00 | 0.00 | 33 | 1017.0 |
| 20260503131101 | 44 | 331 | 1.7 | 10.4 | 0.00 | 0.00 | 0.00 | 51 | 1018.0 |
| 20260503130601 | 44 | 35 | 4.3 | 7.0 | 0.00 | 0.00 | 0.00 | 48 | 1018.0 |
| 20260503110714 | 40 | 293 | 1.7 | 3.5 | 0.00 | 0.00 | 0.00 | 62 | 1017.0 |
| 20260503110214 | 40 | 90 | 0.9 | 2.6 | 0.00 | 0.00 | 0.00 | 63 | 1016.0 |